Chillicothe, MO

3:14 PM CST on November 14, 2019 (GMT -0600)
Chillicothe

Weather History for KCDJ - September, 2019

Change the Weather History Date:

Friday, September 27, 2019

  Actual Average (WUND) Record (WUND)
Temperature  
Mean Temperature 78 °F -  
Max Temperature 90 °F - - (-1)
Min Temperature 66 °F - - (-1)
Cooling Degree Days 12    
Growing Degree Days 28 (Base 50)    
Moisture  
Dew Point 67 °F    
Average Humidity 77    
Maximum Humidity 100    
Minimum Humidity 55    
Precipitation  
Precipitation 0.82 in - - ()
Sea Level Pressure  
Sea Level Pressure 29.66 in    
Wind  
Wind Speed 7 mph (South)    
Max Wind Speed 15 mph    
Max Gust Speed 24 mph    
Averages and records for this station are not official NWS values.
T = Trace of Precipitation, MM = Missing Value Source: NWS Daily Summary

Daily Weather History Graph

Daily Weather History Graph

Search for Another Location

Airport or City:

Astronomy

Sep. 27, 2019 Rise Set
Actual Time 7:06 AM CDT 7:03 PM CDT
Civil Twilight 6:39 AM CDT 7:30 PM CDT
Nautical Twilight 6:08 AM CDT 8:01 PM CDT
Astronomical Twilight 5:36 AM CDT 8:33 PM CDT
Moon 5:29 AM CDT (9/27) 6:54 PM CDT (9/27)
Length of Visible Light 12h 50m
Length of Day
11h 57m
Waning Crescent, 2% of the Moon is Illuminated
Sep 27
Waning Crescent
Sep 28
New
Oct 5
First Quarter
Oct 13
Full
Oct 21
Last Quarter

Hourly Weather History & Observations

Time (CDT) Temp. Heat Index Dew Point Humidity Pressure Visibility Wind Dir Wind Speed Gust Speed Precip Events Conditions
12:52 AM 66.0 °F - 55.9 °F 70% 29.79 in - South 6.9 mph - N/A   Unknown
1:52 AM 66.0 °F - 57.0 °F 73% 29.75 in - Variable 5.8 mph - N/A   Unknown
3:52 AM 66.9 °F - 61.0 °F 81% 29.71 in - SSE 9.2 mph - N/A   Unknown
4:52 AM 66.9 °F - 62.1 °F 84% 29.70 in - South 8.1 mph - N/A   Unknown
5:52 AM 66.0 °F - 62.1 °F 87% 29.68 in - South 8.1 mph - N/A   Unknown
6:52 AM 66.0 °F - 63.0 °F 90% 29.67 in - South 6.9 mph - N/A   Unknown
7:52 AM 68.0 °F - 64.9 °F 90% 29.66 in - South 5.8 mph - N/A   Unknown
8:52 AM 73.0 °F - 68.0 °F 84% 29.63 in - South 8.1 mph - N/A   Unknown
9:52 AM 75.0 °F - 70.0 °F 84% 29.64 in - Variable 3.5 mph - 0.02 in   Unknown
10:52 AM 81.0 °F 84.9 °F 71.1 °F 72% 29.62 in - South 10.4 mph 19.6 mph N/A   Unknown
11:52 AM 84.0 °F 88.4 °F 70.0 °F 63% 29.60 in - SSW 13.8 mph 23.0 mph N/A   Unknown
12:52 PM 86.0 °F 90.7 °F 70.0 °F 59% 29.59 in - SSW 15.0 mph 24.2 mph N/A   Unknown
1:52 PM 88.0 °F 92.9 °F 70.0 °F 55% 29.57 in - SSW 12.7 mph 21.9 mph N/A   Unknown
2:52 PM 89.1 °F 95.0 °F 71.1 °F 55% 29.57 in - Variable 6.9 mph - N/A   Unknown
3:52 PM 87.1 °F 92.8 °F 71.1 °F 59% 29.57 in - WSW 4.6 mph - N/A   Unknown
4:52 PM 88.0 °F 94.7 °F 72.0 °F 59% 29.58 in - Calm Calm - N/A   Unknown
5:52 PM 86.0 °F 93.0 °F 73.0 °F 65% 29.60 in - Calm Calm - N/A   Unknown
6:52 PM 82.0 °F 87.9 °F 73.9 °F 76% 29.59 in - Calm Calm - N/A   Unknown
8:52 PM 71.1 °F - 69.1 °F 93% 29.69 in - Calm Calm - 0.61 in   Unknown
9:52 PM 72.0 °F - 71.1 °F 97% 29.72 in - Calm Calm - N/A   Unknown
10:52 PM 70.0 °F - 70.0 °F 100% 29.71 in - Variable 4.6 mph - 0.19 in   Unknown
11:52 PM 70.0 °F - 68.0 °F 93% 29.77 in - Variable 4.6 mph - N/A   Unknown